When you browse on this site, cookies collect data to enhance your experience and personalize the content and advertising you see.
Visit our Privacy Policy to learn more. By continuing to use the site, you agree to this use of cookies and data.
  • In Austria
  • List of Countries
  • For 7 days
  • Water Temperature
  • Weather Map
  • News
  • Weather Widgets
  • user-avatar
    Login

    Hourly Weather Zastavtsi

    Today, 17 November, Sunday

    Time Temperature Precipitation Wind Pressure Humidity
    00:00 +9°C° 0 mm 3 mps 741 mmHg 93%
    01:00 +9°C° 0 mm 3 mps 742 mmHg 94%
    02:00 +9°C° 0 mm 3 mps 742 mmHg 95%
    03:00 +8°C° 0 mm 4 mps 742 mmHg 95%
    04:00 +10°C° 0 mm 4 mps 742 mmHg 96%
    05:00 +9°C° 0 mm 5 mps 742 mmHg 96%
    06:00 +9°C° 0 mm 5 mps 742 mmHg 95%
    07:00 +9°C° 0 mm 5 mps 742 mmHg 94%
    08:00 +9°C° 0 mm 5 mps 742 mmHg 93%
    09:00 +9°C° 0 mm 5 mps 742 mmHg 89%
    10:00 +10°C° 0 mm 5 mps 742 mmHg 84%
    11:00 +10°C° 0 mm 5 mps 742 mmHg 79%
    12:00 +11°C° 0 mm 6 mps 742 mmHg 71%
    13:00 +13°C° 0 mm 6 mps 742 mmHg 63%
    14:00 +15°C° 0 mm 6 mps 742 mmHg 54%
    15:00 +13°C° 0 mm 6 mps 742 mmHg 57%
    16:00 +12°C° 0 mm 5 mps 741 mmHg 59%
    17:00 +10°C° 0 mm 5 mps 741 mmHg 61%
    18:00 +9°C° 0 mm 5 mps 741 mmHg 62%
    19:00 +9°C° 0 mm 5 mps 741 mmHg 63%
    20:00 +8°C° 0 mm 5 mps 741 mmHg 64%
    21:00 +8°C° 0 mm 6 mps 741 mmHg 64%
    22:00 +7°C° 0 mm 6 mps 741 mmHg 63%
    23:00 +7°C° 0 mm 6 mps 741 mmHg 63%

    Tomorrow, 18 November, Monday

    Time Temperature Precipitation Wind Pressure Humidity
    00:00 +7°C° 0 mm 6 mps 741 mmHg 64%
    01:00 +6°C° 0 mm 5 mps 741 mmHg 66%
    02:00 +6°C° 0 mm 5 mps 741 mmHg 67%
    03:00 +5°C° 0 mm 5 mps 740 mmHg 69%
    04:00 +5°C° 0 mm 5 mps 740 mmHg 71%
    05:00 +5°C° 0 mm 5 mps 740 mmHg 73%
    06:00 +3°C° 0 mm 5 mps 740 mmHg 75%
    07:00 +3°C° 0 mm 5 mps 740 mmHg 78%
    08:00 +3°C° 0 mm 5 mps 740 mmHg 80%
    09:00 +4°C° 0 mm 6 mps 740 mmHg 75%
    10:00 +7°C° 0 mm 6 mps 739 mmHg 71%
    11:00 +8°C° 0 mm 6 mps 739 mmHg 67%
    12:00 +9°C° 0 mm 6 mps 739 mmHg 65%
    13:00 +9°C° 0 mm 6 mps 739 mmHg 64%
    14:00 +10°C° 0 mm 6 mps 739 mmHg 63%
    15:00 +9°C° 0 mm 6 mps 739 mmHg 70%
    16:00 +8°C° 0 mm 6 mps 738 mmHg 78%
    17:00 +7°C° 0 mm 5 mps 738 mmHg 85%
    18:00 +8°C° 0 mm 5 mps 738 mmHg 85%
    19:00 +10°C° 0 mm 4 mps 739 mmHg 85%
    20:00 +10°C° 0 mm 4 mps 739 mmHg 86%
    21:00 +10°C° 0 mm 4 mps 739 mmHg 87%
    22:00 +10°C° 0 mm 4 mps 739 mmHg 88%
    23:00 +10°C° 0 mm 4 mps 740 mmHg 88%

    Day after tomorrow, 19 November, Tuesday

    Time Temperature Precipitation Wind Pressure Humidity
    00:00 +10°C° 0 mm 4 mps 740 mmHg 90%
    01:00 +10°C° 0 mm 3 mps 740 mmHg 92%
    02:00 +9°C° 0 mm 3 mps 740 mmHg 93%
    03:00 +9°C° 0 mm 3 mps 740 mmHg 94%
    04:00 +8°C° 0 mm 3 mps 740 mmHg 95%
    05:00 +8°C° 0 mm 2 mps 740 mmHg 97%
    06:00 +8°C° 0 mm 2 mps 740 mmHg 97%
    07:00 +8°C° 0 mm 2 mps 741 mmHg 97%
    08:00 +8°C° 0 mm 2 mps 741 mmHg 97%
    09:00 +9°C° 0 mm 2 mps 741 mmHg 92%
    10:00 +10°C° 0 mm 2 mps 741 mmHg 87%
    11:00 +13°C° 0 mm 2 mps 742 mmHg 81%
    12:00 +13°C° 0 mm 2 mps 741 mmHg 78%
    13:00 +14°C° 0 mm 2 mps 741 mmHg 75%
    14:00 +14°C° 0 mm 2 mps 741 mmHg 71%
    15:00 +13°C° 0 mm 2 mps 741 mmHg 77%
    16:00 +11°C° 0 mm 3 mps 741 mmHg 83%
    17:00 +10°C° 0 mm 3 mps 741 mmHg 88%
    18:00 +10°C° 0 mm 3 mps 741 mmHg 89%
    19:00 +10°C° 0 mm 3 mps 741 mmHg 90%
    20:00 +10°C° 0 mm 3 mps 741 mmHg 91%
    21:00 +10°C° 0 mm 3 mps 741 mmHg 91%
    22:00 +11°C° 0 mm 3 mps 740 mmHg 90%
    23:00 +11°C° 0 mm 3 mps 740 mmHg 90%

    20 November, Wednesday

    Time Temperature Precipitation Wind Pressure Humidity
    00:00 +11°C° 0 mm 4 mps 740 mmHg 91%
    01:00 +11°C° 0 mm 4 mps 740 mmHg 91%
    02:00 +10°C° 0 mm 5 mps 740 mmHg 92%
    03:00 +10°C° 0 mm 5 mps 740 mmHg 90%
    04:00 +10°C° 0 mm 6 mps 739 mmHg 89%
    05:00 +10°C° 0 mm 6 mps 739 mmHg 87%
    06:00 +9°C° 0 mm 6 mps 739 mmHg 87%
    07:00 +9°C° 0 mm 6 mps 739 mmHg 86%
    08:00 +9°C° 0 mm 6 mps 739 mmHg 85%
    09:00 +9°C° 0 mm 6 mps 740 mmHg 81%
    10:00 +9°C° 0 mm 6 mps 740 mmHg 76%
    11:00 +10°C° 0 mm 7 mps 740 mmHg 72%
    12:00 +10°C° 0 mm 6 mps 740 mmHg 69%
    13:00 +11°C° 0 mm 6 mps 740 mmHg 66%
    14:00 +11°C° 0 mm 6 mps 740 mmHg 63%
    15:00 +11°C° 0 mm 6 mps 740 mmHg 64%
    16:00 +10°C° 0 mm 6 mps 740 mmHg 66%
    17:00 +9°C° 0 mm 6 mps 740 mmHg 68%
    18:00 +9°C° 0 mm 6 mps 740 mmHg 66%
    19:00 +9°C° 0 mm 6 mps 740 mmHg 65%
    20:00 +9°C° 0 mm 6 mps 740 mmHg 63%
    21:00 +8°C° 0 mm 6 mps 741 mmHg 62%
    22:00 +8°C° 0 mm 5 mps 741 mmHg 61%
    23:00 +8°C° 0 mm 5 mps 741 mmHg 60%

    21 November, Thursday

    Time Temperature Precipitation Wind Pressure Humidity
    00:00 +7°C° 0 mm 5 mps 741 mmHg 64%
    01:00 +7°C° 0 mm 6 mps 742 mmHg 68%
    02:00 +5°C° 0 mm 6 mps 742 mmHg 71%
    03:00 +4°C° 0 mm 6 mps 742 mmHg 74%
    04:00 +4°C° 0 mm 6 mps 742 mmHg 77%
    05:00 +3°C° 0 mm 6 mps 742 mmHg 80%
    06:00 +3°C° 0 mm 6 mps 742 mmHg 79%
    07:00 +3°C° 0 mm 6 mps 742 mmHg 78%
    08:00 +3°C° 0 mm 7 mps 742 mmHg 77%
    09:00 +3°C° 0 mm 6 mps 743 mmHg 75%
    10:00 +4°C° 0 mm 6 mps 743 mmHg 74%
    11:00 +4°C° 0 mm 6 mps 743 mmHg 72%
    12:00 +4°C° 0 mm 6 mps 743 mmHg 70%
    13:00 +4°C° 0 mm 6 mps 743 mmHg 68%
    14:00 +5°C° 0 mm 5 mps 743 mmHg 66%
    15:00 +3°C° 0 mm 5 mps 743 mmHg 66%
    16:00 +2°C° 0 mm 5 mps 743 mmHg 66%
    17:00 +1°C° 0 mm 5 mps 743 mmHg 66%
    18:00 +1°C° 0 mm 5 mps 743 mmHg 64%
    19:00 0°C° 0 mm 5 mps 744 mmHg 62%
    20:00 0°C° 0 mm 5 mps 744 mmHg 59%
    21:00 -1°C° 0 mm 5 mps 744 mmHg 58%
    22:00 -1°C° 0 mm 4 mps 744 mmHg 57%
    23:00 -1°C° 0 mm 4 mps 744 mmHg 57%

    22 November, Friday

    Time Temperature Precipitation Wind Pressure Humidity
    00:00 -2°C° 0 mm 4 mps 744 mmHg 57%
    01:00 -2°C° 0 mm 4 mps 744 mmHg 57%
    02:00 -3°C° 0 mm 4 mps 744 mmHg 56%
    03:00 -3°C° 0 mm 4 mps 744 mmHg 57%
    04:00 -3°C° 0 mm 4 mps 744 mmHg 58%
    05:00 -4°C° 0 mm 4 mps 745 mmHg 58%
    06:00 -4°C° 0 mm 4 mps 745 mmHg 58%
    07:00 -4°C° 0 mm 4 mps 745 mmHg 59%
    08:00 -5°C° 0 mm 4 mps 745 mmHg 59%
    09:00 -4°C° 0 mm 4 mps 745 mmHg 57%
    10:00 -3°C° 0 mm 4 mps 745 mmHg 55%
    11:00 -2°C° 0 mm 4 mps 746 mmHg 53%
    12:00 -1°C° 0 mm 4 mps 745 mmHg 54%
    13:00 -1°C° 0 mm 4 mps 745 mmHg 54%
    14:00 0°C° 0 mm 4 mps 745 mmHg 54%
    15:00 -1°C° 0 mm 4 mps 745 mmHg 58%
    16:00 -2°C° 0 mm 4 mps 745 mmHg 62%
    17:00 -2°C° 0 mm 3 mps 745 mmHg 66%
    18:00 -2°C° 0 mm 3 mps 745 mmHg 68%
    19:00 -4°C° 0 mm 4 mps 745 mmHg 70%
    20:00 -4°C° 0 mm 4 mps 745 mmHg 72%
    21:00 -5°C° 0 mm 4 mps 745 mmHg 74%
    22:00 -5°C° 0 mm 3 mps 745 mmHg 76%
    23:00 -6°C° 0 mm 3 mps 746 mmHg 77%
    Show more